| time (UTC) | temp F | wind direction | speed knots | gust knots | rain 1hr in | rain 24hr in | rain mn in | humidity % | barometer mb |
| 20260506113017 | 62 | 135 | 0.9 | 2.6 | 0.00 | 0.06 | 0.01 | 71 | 1009.1 |
| 20260506104017 | 61 | 203 | 1.7 | 4.3 | 0.00 | 0.06 | 0.01 | 73 | 1009.5 |
| 20260506103017 | 61 | 203 | 0.9 | 3.5 | 0.00 | 0.06 | 0.01 | 73 | 1009.6 |
| 20260506102017 | 61 | 270 | 1.7 | 5.2 | 0.00 | 0.06 | 0.01 | 74 | 1009.5 |
| 20260506093517 | 61 | 270 | 1.7 | 3.5 | 0.00 | 0.06 | 0.01 | 74 | 1009.5 |
| 20260506092517 | 61 | 225 | 0.9 | 3.5 | 0.00 | 0.06 | 0.01 | 77 | 1009.5 |
| 20260506083536 | 59 | 225 | 0.9 | 1.7 | 0.00 | 0.06 | 0.01 | 82 | 1009.4 |
| 20260506082516 | 58 | 0.0 | 1.7 | 0.00 | 0.06 | 0.01 | 83 | 1009.5 | |
| 20260506072055 | 57 | 0.0 | 1.7 | 0.00 | 0.06 | 0.01 | 86 | 1009.3 | |
| 20260506071015 | 56 | 0.0 | 0.9 | 0.00 | 0.06 | 0.01 | 90 | 1009.3 | |
| 20260506062015 | 54 | 203 | 0.9 | 2.6 | 0.00 | 0.06 | 0.01 | 94 | 1009.2 |
| 20260506061015 | 53 | 0.0 | 0.9 | 0.00 | 0.06 | 0.01 | 95 | 1009.1 | |
| 20260506051015 | 48 | 0.0 | 0.0 | 0.01 | 0.06 | 0.01 | 98 | 1009.3 | |
| 20260505182036 | 54 | 270 | 1.7 | 3.5 | 0.00 | 0.05 | 0.05 | 92 | 1010.2 |
| 20260505181016 | 54 | 270 | 0.9 | 2.6 | 0.00 | 0.05 | 0.05 | 92 | 1009.9 |
| 20260505172015 | 56 | 338 | 0.9 | 2.6 | 0.00 | 0.05 | 0.05 | 90 | 1009.2 |
| 20260505171015 | 56 | 270 | 0.9 | 1.7 | 0.00 | 0.05 | 0.05 | 91 | 1009.0 |
| 20260505162015 | 56 | 270 | 1.7 | 7.0 | 0.00 | 0.05 | 0.05 | 92 | 1009.6 |
| 20260505161015 | 55 | 270 | 1.7 | 6.1 | 0.00 | 0.05 | 0.05 | 93 | 1009.4 |
| 20260505140536 | 61 | 293 | 2.6 | 7.0 | 0.00 | 0.00 | 0.00 | 80 | 1010.0 |